Location: Bacea
(45.9500°N, 22.6667°E)
Time: 11:35:31
(UTC+00:00)

ATLAS 5 CENTAUR R/B - Pass Details

Date: 16 October 2021
Orbit: 497 x 1159 km, 63.4° (Epoch: 25 November)

Event Time Altitude Azimuth Distance (km) Brightness Sun altitude
Rises 16:57:22 0° 195° (SSW) 2,577 4.9 -13.9°
Reaches altitude 10° 16:59:32 10° 187° (S) 1,719 3.9 -14.3°
Maximum altitude 17:03:01 36° 119° (ESE) 856 1.8 -14.9°
Enters shadow 17:04:30 27° 76° (ENE) 1,089 2.3 -15.2°
